Temperature
13 12 12 12 12 12 12 12 12 12 12 12 11 11 11 11 11 11 11 11 11 11 11 11 11 11 11 11 11 11 11 11 11 11 12 12 12 12 12 12 12 12 12
12 12 12 12 12 12 12 12 12 12 12 11 11 11 11 11 11 11 11 11 11 11 11 11 11 11 11 11 11 11 11 11 11 11 11 11 11 11 11 11 11 11 11
12 12 12 12 12 12 12 12 11 11 11 11 11 11 11 10 10 10 10 10 10 11 11 11 11 11 11 11 11 10 10 10 10 10 10 11 11 11 11 11 11 11 11
12 11 12 12 11 11 11 11 11 11 11 11 11 10 10 10 10 10 10 10 10 10 10 10 10 10 10 10 10 10 10 10 10 10 10 10 10 10 10 10 10 10 10
11 11 11 11 11 11 11 11 11 11 11 11 10 10 10 10 10 10 10 10 10 10 10 10 10 10 10 9 9 9 9 9 9 9 9 9 9 9 9 10 10 10 10
11 11 11 11 11 11 11 11 10 10 10 10 10 10 10 10 10 9 9 9 9 9 9 9 9 9 9 9 9 9 9 9 8 8 9 9 9 9 9 9 9 9 9
11 11 11 11 11 10 10 10 10 10 10 10 10 9 9 9 9 9 9 9 9 9 9 9 9 9 9 9 9 9 9 8 8 8 8 8 8 8 8 8 8 8 9
10 10 10 10 10 10 10 10 10 10 10 9 9 9 8 8 8 9 9 9 8 8 8 8 8 8 8 8 8 8 8 8 8 8 8 8 8 8 7 7 8 8 8
10 10 10 10 10 10 10 10 9 9 9 9 9 8 8 8 8 8 8 8 8 8 8 8 8 8 8 8 8 8 8 8 8 7 7 7 7 7 7 7 7 7 7
10 10 9 9 9 9 9 9 9 9 9 9 8 8 8 7 7 7 7 7 7 7 7 7 7 7 7 7 7 7 7 7 7 7 7 7 7 6 6 6 6 6 7
9 9 9 9 9 9 9 9 9 8 8 8 8 8 8 7 7 6 6 7 7 7 7 7 7 7 7 7 7 7 7 6 6 6 6 6 6 6 6 6 6 6 6
9 9 9 9 9 8 8 8 8 8 8 8 8 7 7 7 7 6 6 6 6 6 6 6 6 6 6 6 6 6 6 6 6 6 6 6 5 6 6 6 5 5 5
8 8 8 8 8 8 8 8 8 8 7 7 7 7 7 6 6 6 5 5 5 6 6 6 6 6 6 5 5 5 5 5 5 5 5 5 5 5 5 5 5 5 5
8 8 8 8 8 8 8 7 7 7 7 7 7 6 6 6 6 6 5 5 5 5 5 5 5 5 5 5 5 5 5 5 5 5 5 4 5 4 4 4 4 4 4
8 8 8 8 7 7 7 7 7 7 6 6 6 6 6 6 6 5 5 5 4 3 4 4 4 4 4 4 4 4 4 4 4 4 4 4 4 4 4 4 4 4 4
7 7 7 7 7 7 7 7 6 6 6 6 6 6 5 5 5 5 5 4 4 3 3 4 4 4 4 4 3 3 3 3 3 3 3 3 3 3 3 3 3 3 3
7 7 7 7 7 7 6 6 6 6 6 5 5 5 5 5 5 4 4 4 4 3 3 3 3 3 3 3 3 3 3 3 3 3 3 3 2 2 3 3 3 3 2
7 6 6 6 6 6 6 6 6 5 5 5 5 5 5 4 4 4 4 4 3 3 3 3 3 3 3 2 2 2 2 2 2 2 2 2 2 2 2 2 2 2 2
6 6 6 6 6 6 6 5 5 5 5 5 4 4 4 4 4 4 3 3 3 3 2 2 2 2 2 2 2 2 2 1 1 1 1 1 1 1 1 1 1 1 1
6 6 6 6 5 5 5 5 5 4 4 4 4 4 4 3 3 3 3 3 2 2 2 2 2 2 1 1 1 1 1 1 1 1 1 1 1 1 1 1 0 0 0
5 5 5 5 5 5 5 4 4 4 4 4 3 3 3 3 3 3 2 2 2 2 1 1 1 1 1 1 0 0 -0 0 0 0 0 0 0 0 0 -0 -0 -0 -0
5 5 5 5 4 4 4 4 4 4 3 3 3 3 3 3 2 2 2 2 1 1 1 1 1 0 0 0 -0 -1 -1 -1 -1 -0 -1 -0 -0 -0 -0 -1 -1 -1 -1
4 4 4 4 4 4 4 4 3 3 3 3 3 2 2 2 2 2 2 1 1 1 1 0 0 0 -0 -0 -1 -1 -1 -1 -1 -1 -2 -1 -1 -1 -1 -1 -1 -1 -1
4 4 4 4 4 3 3 3 3 3 2 2 2 2 2 2 1 1 1 1 1 1 0 -0 -0 -0 -1 -1 -2 -2 -2 -2 -2 -2 -2 -2 -1 -1 -1 -1 -1 -1 -2
4 3 3 3 3 3 3 3 2 2 2 2 2 2 1 1 1 1 0 0 0 0 -0 -1 -1 -1 -1 -2 -2 -2 -3 -3 -3 -2 -3 -3 -2 -2 -2 -2 -2 -2 -2
3 3 3 3 3 3 2 2 2 2 1 1 1 1 1 0 0 -0 -1 -1 -1 -0 -1 -1 -1 -2 -2 -2 -3 -3 -3 -4 -4 -4 -3 -4 -3 -4 -3 -3 -2 -2 -3
Wind_Speed
2 3 3 3 4 4 3 4 3 3 2 3 3 3 3 4 5 6 6 7 8 8 8 8 7 7 8 7 7 7 7 8 8 8 9 8 8 7 7 6 6 6 6
3 3 3 3 3 4 4 4 4 3 2 2 3 4 4 5 6 7 6 6 7 8 8 9 9 8 8 8 8 8 8 8 9 9 9 9 9 8 7 7 7 7 7
4 4 2 2 3 4 5 4 4 3 2 2 3 3 4 5 5 6 7 6 5 6 8 9 9 9 9 9 8 9 9 9 9 9 9 10 9 9 8 8 8 8 8
5 4 2 2 4 5 4 2 2 3 3 3 2 2 2 3 4 5 6 6 6 6 7 8 9 9 10 10 10 9 9 9 9 9 10 10 10 9 9 8 8 8 8
5 5 3 3 5 4 3 3 3 2 2 3 2 1 1 2 2 4 5 6 7 7 6 6 7 8 9 10 10 10 9 9 9 9 9 10 10 10 10 9 9 9 9
5 4 3 4 4 2 2 3 3 3 2 2 2 1 0 1 2 2 3 4 6 6 6 6 6 6 8 9 10 10 10 10 9 9 9 10 10 10 10 10 9 10 10
3 3 2 2 3 2 2 2 2 2 2 2 2 2 1 1 2 2 2 3 4 5 6 6 6 6 5 7 8 10 10 10 10 9 8 9 9 10 10 10 10 10 10
3 2 2 1 1 1 2 2 2 2 1 2 2 1 2 1 1 1 2 2 2 3 4 5 5 5 5 5 6 9 10 11 10 10 9 9 9 10 10 10 10 10 10
2 2 2 2 1 1 1 2 2 2 1 1 2 1 1 1 2 1 1 2 2 1 1 2 4 4 5 5 5 7 9 10 10 10 9 9 10 10 10 11 10 10 10
2 2 1 1 1 1 1 1 2 1 1 1 1 1 1 1 1 2 2 1 1 1 1 1 2 2 3 4 5 7 8 9 10 10 9 9 10 11 11 11 11 10 10
2 2 1 0 0 0 1 1 1 1 1 1 1 1 1 1 2 2 3 2 2 2 1 2 2 1 1 2 3 5 7 9 10 9 9 9 10 10 11 11 10 10 10
2 2 2 1 1 1 1 0 1 1 1 1 1 1 1 1 1 1 2 3 3 3 2 2 2 2 1 1 2 4 6 8 9 9 10 9 10 10 11 11 10 10 10
2 3 2 2 2 2 2 2 1 2 2 2 2 2 1 2 1 1 2 3 3 3 2 2 2 3 2 1 0 4 5 7 8 9 9 9 9 10 10 10 10 10 10
2 2 2 3 3 3 3 2 2 3 3 3 3 3 2 3 2 2 2 2 3 3 3 3 1 3 3 2 1 4 5 7 8 9 9 9 9 9 9 9 9 9 10
2 2 3 3 3 3 3 3 3 4 3 3 4 4 3 3 3 2 2 2 3 3 4 2 1 2 2 2 2 4 5 7 9 9 9 9 8 9 9 9 9 9 9
2 2 3 4 4 4 4 4 3 4 4 4 3 4 4 3 3 3 3 3 3 4 4 3 2 2 2 3 4 5 7 8 9 9 9 9 8 8 8 8 9 9 9
3 3 3 4 4 4 4 4 5 4 4 4 4 4 5 4 4 3 3 3 3 3 5 4 3 2 2 2 4 6 7 8 8 9 9 9 9 9 9 9 9 9 8
2 3 3 3 4 4 3 4 4 4 4 5 5 4 5 4 5 4 4 4 4 4 5 6 4 3 4 4 3 3 6 7 7 9 9 10 10 10 9 10 10 9 9
2 2 2 3 3 3 3 3 3 4 4 5 5 5 5 4 5 4 4 5 4 5 4 5 5 3 3 3 3 4 4 4 7 9 9 10 10 10 11 11 11 10 9
2 2 2 3 3 3 3 3 3 3 4 4 4 5 5 5 6 5 5 5 4 4 4 4 5 4 4 4 2 3 4 3 4 6 8 9 10 11 11 11 10 10 10
2 2 2 3 3 3 3 3 3 4 4 4 4 4 5 6 7 6 5 5 5 4 4 4 5 4 4 3 3 3 4 4 4 3 3 5 6 6 9 11 10 10 11
2 2 3 3 3 3 4 5 4 4 4 4 5 5 5 6 8 10 10 9 7 6 6 5 5 6 6 5 4 3 3 3 4 2 2 5 4 4 5 8 10 11 11
3 3 3 3 4 4 5 6 6 4 4 5 5 5 5 5 7 5 7 9 9 11 11 7 7 8 7 5 4 4 4 4 6 4 3 5 4 5 6 9 11 12 12
2 3 3 4 4 5 6 6 7 5 5 6 6 6 6 6 6 6 5 5 6 8 9 8 8 8 7 5 5 5 5 5 5 4 2 5 4 4 5 7 11 11 11
3 3 3 4 4 5 6 7 6 3 4 6 6 6 6 6 9 9 6 6 7 7 9 12 13 12 13 12 8 3 3 4 6 5 3 3 4 4 4 4 7 9 10
3 3 4 4 5 6 7 7 6 3 4 5 5 5 8 8 10 10 6 6 8 7 6 6 7 10 9 10 11 6 5 5 5 4 3 2 3 2 4 3 3 4 7
Wind_Direction
57 43 57 46 38 16 358 336 343 346 2 11 14 33 32 41 60 79 84 72 58 44 33 27 24 23 19 19 24 29 27 27 28 26 20 13 6 358 350 344 333 322 310
45 49 57 45 26 7 354 349 0 5 10 20 18 30 37 38 48 57 70 71 62 47 35 30 28 24 20 24 31 35 33 30 28 24 20 14 7 360 352 347 340 333 320
39 52 63 51 14 3 4 8 5 12 10 19 18 32 44 36 51 59 57 57 55 50 42 35 32 31 28 27 30 34 33 29 23 18 15 10 6 360 352 348 342 335 329
37 46 57 45 16 12 11 5 13 11 13 20 14 14 46 43 49 68 69 60 54 54 51 45 40 36 32 31 29 28 27 24 20 15 12 8 3 360 355 351 349 346 338
40 49 46 35 24 19 14 4 18 19 17 9 348 359 51 64 46 63 76 74 67 61 57 52 50 45 38 32 27 23 20 18 16 13 10 6 2 359 356 353 352 349 344
41 42 47 40 25 36 20 13 7 11 14 345 334 340 131 125 88 72 71 77 73 62 56 54 51 42 36 31 25 18 14 13 12 10 6 5 3 1 358 354 352 350 346
49 45 37 40 35 41 22 20 8 4 7 3 6 330 272 167 130 129 93 75 71 66 64 60 53 42 37 32 22 15 8 4 2 4 6 4 3 359 356 356 354 354 352
62 58 47 55 56 43 28 26 14 3 354 26 34 354 335 327 321 139 115 105 86 75 71 63 55 42 39 40 21 13 5 359 358 359 1 2 0 354 352 351 351 350 349
98 71 42 43 52 69 64 29 19 27 341 337 51 74 45 298 320 286 205 143 127 99 97 90 73 48 33 35 25 12 3 357 355 356 359 1 358 352 349 348 349 350 351
117 104 69 30 33 73 65 22 37 356 4 308 324 354 211 186 267 308 299 263 169 175 171 116 93 62 35 31 22 14 4 356 353 354 358 360 357 354 353 351 349 349 349
148 158 167 195 235 97 88 43 11 336 331 284 281 296 301 301 232 229 280 292 300 264 208 166 145 146 65 36 20 16 5 355 351 350 350 353 353 351 351 351 349 349 349
184 181 191 206 205 186 173 206 253 279 281 292 289 270 225 245 281 265 270 285 284 267 248 211 174 169 153 53 16 3 351 347 344 342 344 348 349 348 346 346 346 348 350
199 198 192 209 204 211 219 219 237 261 262 260 259 261 263 246 247 266 267 277 291 285 250 229 196 171 169 155 5 337 334 334 335 333 334 339 342 341 339 338 339 341 343
202 187 194 216 221 218 224 220 230 243 239 243 254 255 257 262 242 226 225 253 294 291 264 250 210 170 160 161 276 312 313 319 321 321 321 329 331 331 329 329 331 332 335
204 187 204 220 230 223 221 221 228 239 237 236 240 246 246 248 238 233 229 207 212 261 276 263 226 194 182 201 270 285 290 300 308 310 312 317 321 321 320 322 324 324 323
208 206 217 222 227 224 221 222 235 238 239 241 231 236 248 246 238 226 221 229 216 219 253 274 265 262 237 258 275 280 280 291 300 305 305 307 311 313 314 314 316 318 319
213 216 221 224 228 228 223 223 231 232 235 244 239 231 242 243 238 230 225 227 231 222 249 274 278 281 269 269 283 278 280 277 278 289 295 297 300 302 305 307 309 311 313
219 219 223 227 233 231 228 227 238 233 227 234 238 236 240 240 238 232 227 228 231 229 235 261 275 272 267 262 259 269 277 276 274 279 284 290 291 295 297 297 300 303 305
216 220 220 230 237 236 233 233 235 241 238 236 234 234 240 234 241 237 233 233 236 243 234 245 265 266 268 269 271 278 276 276 280 278 280 283 285 288 290 289 290 293 296
208 219 228 232 234 238 234 236 238 247 250 248 243 237 238 233 236 233 236 234 233 241 244 245 257 265 265 267 254 266 283 274 278 280 278 281 285 285 284 283 284 286 289
217 219 227 238 237 233 230 228 238 248 253 258 257 247 241 235 235 237 240 231 222 229 238 245 255 263 262 259 252 250 264 283 284 263 269 279 282 276 273 274 277 277 281
227 225 229 234 238 236 235 241 241 248 254 255 259 258 253 247 244 249 253 251 235 229 231 238 251 253 258 251 249 251 256 282 286 273 275 283 270 265 263 260 268 274 277
230 234 235 235 241 240 240 248 250 248 252 254 254 255 258 250 251 241 252 259 258 255 248 240 242 247 253 249 246 254 248 253 261 260 280 282 270 268 266 268 271 272 271
236 240 243 244 250 252 245 248 254 246 249 253 249 245 246 249 242 233 234 247 249 252 251 248 246 252 251 247 235 239 244 259 269 267 242 272 279 271 282 272 267 265 268
253 252 252 254 259 266 257 252 252 241 251 260 258 252 246 245 251 248 240 247 258 259 257 250 249 251 256 262 258 251 251 266 278 276 229 243 273 288 283 271 259 263 272
251 262 266 260 257 263 265 257 251 235 253 265 267 261 254 252 255 254 243 240 257 263 262 264 255 257 257 258 258 240 225 244 265 272 233 223 260 297 296 280 268 264 273
Height
1529 1530 1531 1531 1532 1532 1532 1532 1533 1533 1533 1533 1533 1533 1533 1533 1533 1533 1532 1532 1531 1531 1530 1530 1529 1529 1528 1528 1527 1527 1526 1526 1525 1525 1524 1524 1524 1524 1523 1523 1523 1523 1523
1528 1529 1530 1530 1531 1531 1531 1531 1532 1532 1532 1532 1532 1532 1532 1532 1532 1531 1531 1531 1530 1529 1529 1528 1528 1527 1527 1526 1526 1525 1525 1524 1523 1523 1522 1522 1521 1521 1520 1520 1520 1520 1520
1527 1528 1529 1529 1529 1530 1530 1530 1530 1531 1531 1531 1531 1531 1531 1531 1530 1530 1530 1529 1529 1528 1527 1527 1526 1526 1525 1525 1524 1523 1523 1522 1521 1521 1520 1519 1519 1518 1517 1517 1517 1516 1516
1525 1527 1527 1528 1528 1529 1529 1529 1529 1529 1529 1529 1529 1529 1529 1529 1529 1528 1528 1528 1527 1527 1526 1525 1525 1524 1523 1523 1522 1522 1521 1520 1519 1518 1518 1517 1516 1515 1515 1514 1513 1513 1512
1524 1525 1526 1526 1527 1527 1528 1528 1528 1528 1527 1527 1527 1527 1527 1527 1527 1527 1527 1526 1526 1525 1525 1524 1523 1523 1522 1521 1520 1520 1519 1518 1517 1516 1515 1515 1514 1513 1512 1511 1510 1509 1509
1522 1524 1524 1525 1526 1526 1526 1526 1526 1526 1526 1526 1526 1525 1525 1525 1526 1525 1525 1525 1524 1524 1523 1522 1522 1521 1520 1519 1519 1518 1517 1516 1515 1514 1513 1512 1511 1510 1509 1508 1507 1506 1505
1521 1522 1523 1524 1524 1524 1525 1525 1525 1525 1525 1524 1524 1523 1524 1524 1524 1524 1524 1523 1523 1522 1521 1521 1520 1519 1518 1517 1516 1516 1514 1513 1512 1511 1510 1509 1508 1507 1506 1505 1504 1503 1501
1520 1520 1521 1522 1522 1523 1523 1523 1524 1523 1523 1523 1523 1522 1522 1523 1522 1522 1522 1521 1521 1520 1519 1518 1518 1517 1516 1515 1514 1513 1512 1511 1510 1509 1507 1506 1505 1504 1503 1502 1500 1499 1498
1518 1519 1519 1520 1521 1521 1521 1522 1522 1522 1522 1522 1522 1522 1522 1521 1520 1520 1520 1519 1519 1518 1517 1516 1515 1514 1513 1512 1512 1511 1510 1509 1508 1506 1505 1503 1502 1501 1500 1499 1497 1496 1494
1515 1517 1518 1518 1519 1519 1519 1520 1520 1520 1520 1520 1520 1520 1521 1520 1520 1518 1518 1517 1516 1515 1514 1513 1512 1512 1511 1510 1509 1508 1507 1506 1505 1504 1502 1500 1499 1498 1497 1496 1494 1493 1491
1514 1515 1516 1516 1517 1517 1517 1517 1518 1518 1518 1518 1517 1517 1517 1517 1517 1516 1514 1514 1513 1513 1511 1510 1510 1509 1508 1507 1506 1505 1504 1503 1502 1500 1499 1497 1496 1495 1494 1492 1491 1489 1488
1512 1513 1513 1514 1514 1515 1515 1515 1515 1516 1515 1515 1515 1514 1514 1514 1514 1513 1512 1510 1510 1509 1508 1508 1507 1506 1505 1504 1503 1502 1501 1500 1499 1497 1496 1494 1493 1491 1490 1489 1487 1486 1484
1510 1510 1511 1512 1512 1512 1512 1512 1512 1512 1512 1512 1512 1512 1511 1511 1511 1511 1510 1508 1506 1505 1505 1504 1503 1503 1502 1501 1500 1499 1498 1496 1495 1494 1492 1491 1489 1488 1486 1485 1483 1482 1480
1507 1508 1508 1509 1509 1509 1509 1509 1509 1509 1509 1509 1509 1508 1508 1507 1507 1507 1507 1505 1503 1502 1501 1501 1500 1499 1498 1497 1496 1495 1494 1493 1491 1490 1488 1487 1485 1484 1482 1481 1479 1478 1476
1504 1505 1505 1505 1506 1506 1506 1505 1505 1505 1505 1505 1505 1504 1504 1504 1503 1503 1503 1502 1502 1499 1497 1497 1496 1495 1495 1494 1493 1491 1490 1489 1487 1486 1484 1482 1481 1479 1478 1476 1475 1473 1472
1501 1502 1502 1502 1502 1502 1502 1502 1502 1501 1501 1501 1501 1500 1500 1500 1499 1499 1498 1498 1498 1497 1494 1493 1492 1492 1491 1490 1488 1487 1486 1484 1483 1481 1480 1478 1477 1475 1474 1472 1471 1469 1468
1498 1498 1498 1498 1498 1498 1498 1498 1497 1497 1497 1496 1496 1496 1495 1495 1495 1494 1494 1493 1493 1492 1490 1488 1488 1488 1486 1485 1483 1483 1481 1480 1478 1477 1475 1474 1472 1471 1469 1468 1466 1465 1464
1495 1494 1494 1494 1494 1494 1494 1493 1493 1492 1492 1492 1492 1491 1491 1491 1490 1489 1489 1488 1488 1487 1486 1483 1483 1483 1482 1480 1479 1478 1476 1475 1474 1472 1471 1469 1468 1466 1465 1464 1462 1461 1459
1491 1491 1491 1490 1490 1490 1490 1489 1489 1488 1488 1487 1487 1486 1486 1486 1485 1485 1484 1483 1483 1482 1481 1479 1477 1477 1476 1476 1474 1472 1472 1470 1469 1467 1466 1465 1463 1462 1460 1459 1458 1456 1455
1487 1487 1487 1487 1486 1486 1486 1485 1484 1484 1483 1483 1482 1482 1481 1481 1481 1480 1479 1478 1478 1477 1476 1474 1473 1472 1471 1470 1469 1467 1466 1465 1464 1463 1461 1460 1458 1457 1456 1454 1453 1452 1450
1483 1483 1483 1483 1482 1482 1482 1481 1480 1480 1479 1478 1478 1477 1477 1476 1476 1475 1474 1473 1472 1471 1470 1469 1467 1467 1466 1465 1464 1462 1461 1459 1458 1457 1456 1455 1453 1452 1451 1450 1448 1447 1446
1480 1480 1479 1479 1479 1478 1478 1477 1477 1475 1474 1473 1473 1472 1471 1471 1471 1470 1469 1468 1467 1466 1465 1464 1462 1461 1460 1460 1459 1458 1456 1454 1452 1452 1451 1449 1448 1447 1446 1445 1443 1442 1441
1476 1476 1476 1475 1475 1474 1474 1473 1472 1471 1470 1469 1468 1467 1466 1466 1465 1464 1464 1463 1462 1461 1460 1459 1457 1455 1455 1454 1454 1452 1451 1450 1448 1447 1446 1442 1443 1441 1440 1439 1438 1437 1436
1473 1473 1472 1472 1471 1470 1470 1469 1468 1466 1465 1464 1463 1462 1461 1460 1460 1459 1458 1456 1455 1455 1454 1453 1451 1450 1450 1449 1448 1447 1446 1444 1443 1442 1441 1438 1436 1435 1435 1433 1433 1432 1431
1469 1469 1468 1468 1467 1466 1465 1464 1463 1461 1460 1459 1458 1457 1456 1455 1455 1454 1452 1451 1449 1448 1448 1447 1446 1445 1444 1444 1443 1442 1440 1439 1436 1435 1435 1434 1431 1430 1428 1427 1427 1427 1426
1466 1465 1464 1463 1462 1462 1461 1460 1459 1457 1455 1454 1453 1452 1451 1450 1449 1448 1447 1445 1443 1442 1442 1440 1440 1439 1438 1437 1437 1436 1435 1434 1432 1430 1429 1429 1426 1425 1422 1421 1421 1421 1420